Starlink 31980

operational
NORAD ID: 59962 Int'l Des: 2024-107 Owner: SPXS Country: US Constellation: starlink
LEOCIRCULAR

Über Starlink 31980

Beschreibung wird geladen...

Live-Position

3D-Globus wird geladen...

Nächste Überflüge

Höhenverlauf

Altitude vs Time

uPlot chart will show altitude changes over time

Zweizeiliger Elementsatz

1 59962U 24107T 25260.92267776 .00001474 00000-0 61892-4 0 9992
2 59962 53.1598 148.1137 0001141 84.6967 275.4164 15.30190154 73341
Epoch: 17. Sept. 2025 • Age: 21 hours

Aktueller Status

Höhe 479.5 km
Geschwindigkeit 7.63 km/s
Subsatellitenpunkt -14.67°S, 46.5°E
Startdatum 5. Juni 2024
Alter 1.2 years
Typ internet

Technische Details

Klassifizierung Payload
Masse 730.00 kg
Trockenmasse 700.00 kg
Gesamtmasse 730.00 kg
Länge 0.30 m
Durchmesser 4.10 m
Spannweite 29.00 m
Form Box + pan
Hersteller SPXS
Bus-Typ Starlink V2M
Phasenstatus In Orbit
Besitzer/Staat SPXS/US

Große Konstellationen

Loading constellations...